Regional Weather Roundup
Issued by NWS

Home | Current Version | Previous Version | Text Only | Print | Product List | Glossary On
Versions: 1 2 3 4 5 6 7 8 9 10 11 12 13 14 15 16 17 18 19 20 21 22 23 24 25 26 27 28 29 30 31 32 33 34 35 36 37 38 39 40 41 42 43 44 45 46 47 48 49 50
000
ASUS43 KLSX 150507
RWRMO

WEATHER SUMMARY FOR MISSOURI
NATIONAL WEATHER SERVICE SPRINGFIELD MO
1100 PM CST THU DEC 14 2017

NOTE: "FAIR" INDICATES FEW OR NO CLOUDS BELOW 12,000 FEET WITH NO
       SIGNIFICANT WEATHER AND/OR OBSTRUCTIONS TO VISIBILITY.
       CURRENT SKY AND/OR WEATHER CONDITIONS ARE NOT AVAILABLE FOR
       CHILLICOTHE AND FARMINGTON.

MOZ001>031-035>038-043-044-053-054-150600-
...NORTHERN AND WESTERN MISSOURI...

CITY           SKY/WX    TMP DP  RH WIND       PRES   REMARKS
KANSAS CTY INT CLOUDY    35  24  64 CALM      30.12S
KANSAS C DTWN  CLOUDY    38  24  57 CALM      30.13S
LEE`S SUMMIT   CLOUDY    36  25  64 S3        30.12S
ST JOSEPH      PTCLDY    29  25  85 W3        30.14S
CHILLICOTHE      N/A     25  21  85 CALM      30.14R
KIRKSVILLE     CLOUDY    29  27  92 SW5       30.10F WCI  24

$$
MOZ066>068-077>081-088>096-101>105-150600-
...SOUTHWEST MISSOURI...

CITY           SKY/WX    TMP DP  RH WIND       PRES   REMARKS
SPRINGFIELD    CLOUDY    33  26  75 CALM      30.11F
JOPLIN         CLOUDY    35  29  78 SW5       30.14S
BRANSON        MOCLDY    30  23  74 CALM      30.13S

$$
MOZ032>034-039>042-045>050-055>058-069>072-150600-
...CENTRAL MISSOURI...

CITY           SKY/WX    TMP DP  RH WIND       PRES   REMARKS
COLUMBIA       CLOUDY    30  23  75 CALM      30.12S
JEFFERSON CITY CLOUDY    31  22  69 E3        30.14F
ROLLA          CLOUDY    29  22  75 CALM      30.12F
SEDALIA        CLOUDY    34  27  75 S3        30.14S
WHITEMAN AFB   CLOUDY    32  23  70 CALM      30.09S
WARRENSBURG    CLOUDY    32  27  80 CALM      30.13F
OSAGE BEACH    CLOUDY    33  24  69 CALM      30.14F

$$
MOZ051-052-059>065-150600-
...EAST CENTRAL MISSOURI...

CITY           SKY/WX    TMP DP  RH WIND       PRES   REMARKS
ST LOUIS INTL  MOCLDY    29  20  69 NW6       30.13F WCI  23
SPIRIT OF STL  CLOUDY    27  21  78 CALM      30.13F
ST CHARLES     CLOUDY    30  19  63 W5        30.14S WCI  25

$$
MOZ072>076-082>087-097>100-106>115-150600-
...SOUTH CENTRAL AND SOUTHEAST MISSOURI...

CITY           SKY/WX    TMP DP  RH WIND       PRES   REMARKS
CAPE GIRARDEAU CLOUDY    31  22  69 W6        30.14F WCI  25
FARMINGTON     CLOUDY    30  21  69 NW10      30.12F WCI  21
POPLAR BLUFF   CLOUDY    33  24  69 CALM      30.15S
WEST PLAINS    CLOUDY    34  22  61 CALM      30.11F

$$



USA.gov is the U.S. government's official web portal to all federal, state and local government web resources and services.